CW2597 Weather Reports


Display with metric or nautical units.
time (UTC)temp
F
wind
direction
speed
MPH
gust
MPH
rain 1hr
in
rain 24hr
in
rain mn
in
humidity
%
barometer
mb
20260906161513 70 52 1.0 3.0 0.00 0.00 0.00 57 1022.4
20260906160706 70 52 0.0 2.0 0.00 0.00 0.00 56 1023.4
20260906160513 70 65 0.0 2.0 0.00 0.00 0.00 56 1022.5
20260906160207 70 65 0.0 2.0 0.00 0.00 0.00 56 1023.4
20260906155706 70 65 0.0 2.0 0.00 0.00 0.00 55 1023.4
20260906155513 70 64 0.0 3.0 0.00 0.00 0.00 57 1022.5
20260906155207 70 67 1.0 3.0 0.00 0.00 0.00 55 1023.4
20260906154707 70 70 1.0 6.0 0.00 0.00 0.00 55 1023.4
20260906154513 70 73 2.0 6.0 0.00 0.00 0.00 55 1022.4
20260906154207 70 57 1.0 3.0 0.00 0.00 0.00 55 1023.4
20260906153706 71 55 2.0 3.0 0.00 0.00 0.00 53 1023.4
20260906153512 71 64 1.0 5.0 0.00 0.00 0.00 54 1022.5
20260906153206 71 68 2.0 5.0 0.00 0.00 0.00 53 1023.5
20260906152707 71 105 0.0 2.0 0.00 0.00 0.00 51 1023.5
20260906152515 71 103 0.0 2.0 0.00 0.00 0.00 52 1022.5
20260906152207 71 94 1.0 7.0 0.00 0.00 0.00 52 1023.4
20260906151513 71 179 2.0 6.0 0.00 0.00 0.00 54 1022.5
20260906151206 71 76 0.0 2.0 0.00 0.00 0.00 54 1023.5
20260906150706 71 63 3.0 5.0 0.00 0.00 0.00 53 1023.7
20260906150513 71 68 2.0 5.0 0.00 0.00 0.00 53 1022.7
20260906150206 71 57 1.0 8.0 0.00 0.00 0.00 55 1023.8
20260906145706 71 67 0.0 3.0 0.00 0.00 0.00 56 1023.8
20260906145513 71 66 1.0 4.0 0.00 0.00 0.00 55 1023.1
20260906144706 70 54 1.0 3.0 0.00 0.00 0.00 57 1023.9
20260906144513 70 54 1.0 4.0 0.00 0.00 0.00 56 1023.0
20260906143513 70 61 1.0 3.0 0.00 0.00 0.00 56 1023.1
20260906143206 70 53 1.0 3.0 0.00 0.00 0.00 56 1024.1
20260906142513 70 177 0.0 1.0 0.00 0.00 0.00 56 1023.2
20260906142206 71 171 1.0 3.0 0.00 0.00 0.00 54 1024.2
20260906141706 71 158 0.0 3.0 0.00 0.00 0.00 54 1024.3
20260906141206 71 147 1.0 3.0 0.00 0.00 0.00 53 1024.2
20260906140707 71 157 1.0 5.0 0.00 0.00 0.00 53 1024.2
20260906140513 71 118 1.0 5.0 0.00 0.00 0.00 53 1023.3
20260906140206 72 196 1.0 2.0 0.00 0.00 0.00 52 1024.3
20260906135706 72 237 1.0 3.0 0.00 0.00 0.00 52 1024.4
20260906134706 72 203 2.0 8.0 0.00 0.00 0.00 52 1024.3
20260906134512 72 239 2.0 8.0 0.00 0.00 0.00 52 1023.4
20260906134206 72 183 1.0 5.0 0.00 0.00 0.00 53 1024.3
20260906133706 71 54 0.0 5.0 0.00 0.00 0.00 54 1024.3
20260906133207 71 155 1.0 7.0 0.00 0.00 0.00 55 1024.5
20260906132706 71 59 0.0 3.0 0.00 0.00 0.00 54 1024.5
20260906132513 71 62 1.0 4.0 0.00 0.00 0.00 53 1023.5
20260906132206 71 79 1.0 3.0 0.00 0.00 0.00 54 1024.5
20260906131207 71 73 0.0 8.0 0.00 0.00 0.00 52 1024.5
20260906130706 71 210 1.0 3.0 0.00 0.00 0.00 52 1024.6
20260906130513 71 198 1.0 4.0 0.00 0.00 0.00 52 1023.6
20260906130206 71 132 1.0 5.0 0.00 0.00 0.00 54 1024.6
20260906125706 70 67 0.0 2.0 0.00 0.00 0.00 54 1024.7
20260906125206 71 77 3.0 7.0 0.00 0.00 0.00 53 1024.7
20260906124706 71 18 0.0 7.0 0.00 0.00 0.00 55 1024.9
20260906124513 71 231 2.0 7.0 0.00 0.00 0.00 54 1023.9
20260906124206 71 243 2.0 6.0 0.00 0.00 0.00 54 1024.9
20260906123707 70 199 1.0 3.0 0.00 0.00 0.00 55 1025.0
20260906123206 70 261 3.0 7.0 0.00 0.01 0.00 54 1025.1
20260906122707 70 175 1.0 3.0 0.00 0.01 0.00 51 1025.2
20260906122515 70 187 1.0 4.0 0.00 0.00 0.00 50 1024.3
20260906121707 70 74 1.0 3.0 0.00 0.01 0.00 53 1025.2
20260906121512 70 145 1.0 4.0 0.00 0.00 0.00 52 1024.2
20260906121207 70 213 2.0 3.0 0.00 0.01 0.00 52 1025.2
20260906120706 70 134 2.0 6.0 0.00 0.01 0.00 53 1025.3
20260906120206 70 115 1.0 7.0 0.00 0.01 0.00 55 1025.5
20260906115707 70 76 1.0 6.0 0.00 0.01 0.00 55 1025.5
20260906115512 70 210 2.0 6.0 0.00 0.00 0.00 54 1024.6
20260906115207 69 232 2.0 6.0 0.00 0.01 0.00 55 1025.6
20260906114706 69 72 3.0 6.0 0.00 0.01 0.00 53 1025.5
20260906114206 70 187 1.0 3.0 0.00 0.01 0.00 54 1025.6
20260906113706 69 241 2.0 7.0 0.00 0.01 0.00 54 1025.6
20260906113512 69 240 2.0 7.0 0.00 0.00 0.00 54 1024.6
20260906113206 70 229 2.0 7.0 0.00 0.01 0.00 54 1025.6
20260906112706 69 221 1.0 7.0 0.00 0.01 0.00 54 1025.7
20260906112206 69 232 1.0 6.0 0.00 0.01 0.00 52 1025.7
20260906111706 69 211 3.0 7.0 0.00 0.01 0.00 54 1025.9
20260906111513 69 233 3.0 7.0 0.00 0.00 0.00 54 1024.9
20260906111207 69 184 1.0 3.0 0.00 0.01 0.00 54 1025.9
20260906110706 69 222 2.0 5.0 0.00 0.01 0.00 53 1025.9
20260906110512 69 283 1.0 5.0 0.00 0.00 0.00 55 1024.8
20260906110206 69 239 1.0 3.0 0.00 0.01 0.00 53 1025.8
20260906105706 69 171 1.0 3.0 0.00 0.01 0.00 58 1025.8
20260906105513 68 229 1.0 3.0 0.00 0.00 0.00 58 1024.8
20260906105206 68 221 1.0 3.0 0.00 0.01 0.00 57 1025.8
20260906104707 68 225 2.0 9.0 0.00 0.01 0.00 58 1026.0
20260906104511 68 206 2.0 9.0 0.00 0.00 0.00 60 1025.0
20260906104206 68 246 1.0 6.0 0.00 0.01 0.00 59 1026.0
20260906103707 68 216 1.0 3.0 0.00 0.01 0.00 60 1026.0
20260906103513 68 219 1.0 4.0 0.00 0.00 0.00 59 1025.1
20260906103206 67 232 3.0 9.0 0.00 0.01 0.00 59 1026.1
20260906102706 68 235 3.0 9.0 0.00 0.01 0.00 58 1026.1
20260906102511 68 262 3.0 7.0 0.00 0.00 0.00 58 1025.1
20260906102206 69 255 3.0 7.0 0.00 0.01 0.00 56 1026.2
20260906101512 69 226 0.0 5.0 0.00 0.00 0.00 60 1025.2
20260906100706 67 179 2.0 7.0 0.00 0.01 0.00 61 1026.3
20260906100512 67 229 2.0 7.0 0.00 0.00 0.00 59 1025.3
20260906100206 68 225 1.0 8.0 0.00 0.01 0.00 62 1026.4
20260906095706 67 230 2.0 7.0 0.00 0.01 0.00 62 1026.4
20260906095512 67 221 2.0 6.0 0.00 0.00 0.00 62 1025.3
20260906095206 67 246 2.0 3.0 0.00 0.01 0.00 62 1026.4
20260906094706 66 237 3.0 7.0 0.00 0.01 0.00 61 1026.3
20260906094512 66 246 3.0 7.0 0.00 0.00 0.00 64 1025.3
20260906094206 66 237 2.0 7.0 0.00 0.01 0.00 63 1026.4
20260906093706 67 219 2.0 6.0 0.00 0.01 0.00 63 1026.4
20260906093206 67 226 1.0 5.0 0.00 0.01 0.00 63 1026.4
20260906092706 66 232 2.0 5.0 0.00 0.01 0.00 63 1026.3
20260906092512 66 240 1.0 4.0 0.00 0.00 0.00 64 1025.4
20260906092206 66 267 2.0 6.0 0.00 0.01 0.00 66 1026.4
20260906091706 66 188 1.0 8.0 0.00 0.01 0.00 65 1026.5
20260906091512 66 269 2.0 8.0 0.00 0.00 0.00 65 1025.5
20260906091206 66 256 2.0 8.0 0.00 0.01 0.00 65 1026.5
20260906090706 65 223 1.0 3.0 0.00 0.01 0.00 67 1026.6
20260906090512 65 270 1.0 4.0 0.00 0.00 0.00 66 1025.5
20260906090206 65 237 2.0 6.0 0.00 0.01 0.00 66 1026.5
20260906085705 65 245 2.0 6.0 0.00 0.01 0.00 68 1026.5
20260906085511 65 293 1.0 4.0 0.00 0.00 0.00 69 1025.4
20260906085206 65 246 0.0 3.0 0.00 0.01 0.00 70 1026.5
20260906084705 64 235 0.0 3.0 0.00 0.01 0.00 70 1026.4
20260906084512 64 239 0.0 4.0 0.00 0.00 0.00 69 1025.4
20260906084206 64 244 2.0 6.0 0.00 0.01 0.00 69 1026.5
20260906083706 64 260 2.0 6.0 0.00 0.01 0.00 70 1026.5
20260906083206 64 207 1.0 3.0 0.00 0.02 0.00 71 1026.4
20260906082512 63 229 2.0 7.0 0.00 0.00 0.00 71 1025.4
20260906082206 63 245 2.0 7.0 0.00 0.02 0.00 73 1026.4
20260906081706 63 260 1.0 5.0 0.00 0.02 0.00 73 1026.4
20260906081511 63 221 1.0 5.0 0.00 0.00 0.00 72 1025.4
20260906081207 63 213 1.0 3.0 0.00 0.02 0.00 73 1026.4
20260906080707 63 231 2.0 5.0 0.00 0.02 0.00 73 1026.3
20260906080511 62 204 1.0 5.0 0.00 0.00 0.00 74 1025.3
20260906080206 62 219 1.0 2.0 0.00 0.02 0.00 75 1026.3
20260906075706 62 188 1.0 5.0 0.00 0.02 0.00 75 1026.2
20260906075511 62 253 1.0 5.0 0.00 0.00 0.00 75 1025.2
20260906075206 61 235 1.0 3.0 0.00 0.02 0.00 77 1026.2
20260906074706 61 217 1.0 3.0 0.00 0.02 0.00 78 1026.1
20260906074511 60 198 1.0 3.0 0.00 0.00 0.00 78 1025.1
20260906073706 60 253 1.0 3.0 0.00 0.02 0.00 79 1026.1
20260906073513 60 256 1.0 4.0 0.00 0.00 0.00 79 1025.2
20260906073206 60 201 2.0 3.0 0.00 0.02 0.00 80 1026.3
20260906072706 59 247 2.0 7.0 0.00 0.02 0.00 80 1026.2
20260906072512 59 240 1.0 7.0 0.00 0.00 0.00 81 1025.1
20260906072206 59 185 1.0 3.0 0.00 0.02 0.00 81 1026.2
20260906071706 59 262 2.0 3.0 0.00 0.02 0.00 80 1026.0
20260906071511 59 217 1.0 5.0 0.00 0.00 0.00 80 1025.0
20260906071206 59 203 1.0 3.0 0.00 0.02 0.00 82 1026.1
20260906070706 59 241 1.0 3.0 0.00 0.02 0.00 82 1026.0
20260906070511 58 187 0.0 2.0 0.00 0.00 0.00 82 1025.0
20260906070206 58 183 0.0 1.0 0.00 0.02 0.00 84 1026.0
20260906065706 57 183 0.0 2.0 0.00 0.02 0.00 84 1025.9
20260906065512 57 181 0.0 2.0 0.00 0.00 0.00 85 1024.8
20260906065206 57 194 0.0 1.0 0.00 0.02 0.00 86 1025.9
20260906064705 56 194 0.0 2.0 0.00 0.02 0.00 86 1025.8
20260906064512 56 194 0.0 1.0 0.00 0.00 0.00 86 1024.8
20260906064206 56 194 0.0 2.0 0.00 0.02 0.00 87 1025.8
20260906063705 55 196 0.0 2.0 0.00 0.02 0.00 88 1025.8
20260906063511 55 196 0.0 2.0 0.00 0.00 0.00 88 1024.8
20260906062706 54 251 0.0 1.0 0.00 0.02 0.00 89 1025.8
20260906062206 54 250 0.0 1.0 0.00 0.02 0.00 90 1025.8
20260906061706 53 250 0.0 1.0 0.00 0.02 0.00 91 1025.7
20260906061512 53 251 0.0 1.0 0.00 0.00 0.00 91 1024.7
20260906061206 52 250 0.0 1.0 0.00 0.02 0.00 92 1025.7
20260906060512 51 250 0.0 0.0 0.00 0.00 0.00 92 1024.7
20260906055706 50 250 0.0 1.0 0.00 0.02 0.00 92 1025.6
20260906055514 50 250 0.0 1.0 0.00 0.00 0.00 92 1024.6
20260906054705 50 250 0.0 0.0 0.00 0.02 0.00 92 1025.7
20260906054512 49 250 0.0 0.0 0.00 0.00 0.00 91 1024.6
20260906054206 49 250 0.0 0.0 0.00 0.02 0.00 91 1025.7
20260906053512 49 250 0.0 0.0 0.00 0.00 0.00 91 1024.6
20260906053206 49 250 0.0 0.0 0.00 0.02 0.00 91 1025.7
20260906052707 49 250 0.0 0.0 0.00 0.02 0.00 91 1025.7
20260906052512 49 250 0.0 0.0 0.00 0.00 0.00 91 1024.6
20260906052206 49 250 0.0 0.0 0.00 0.02 0.00 91 1025.6
20260906051706 49 250 0.0 0.0 0.00 0.02 0.00 90 1025.7
20260906051512 49 250 0.0 0.0 0.00 0.00 0.00 90 1024.6
20260906051206 49 250 0.0 0.0 0.00 0.02 0.00 90 1025.5
20260906050706 49 250 0.0 0.0 0.00 0.02 0.00 90 1025.5
20260906050512 49 250 0.0 0.0 0.00 0.00 0.00 90 1024.5
20260906050205 49 250 0.0 0.0 0.00 0.02 0.00 90 1025.6
20260906045512 49 250 0.0 0.0 0.00 0.00 0.00 90 1024.6
20260906045206 49 250 0.0 0.0 0.00 0.02 0.00 90 1025.6
20260906044705 49 250 0.0 0.0 0.00 0.02 0.00 90 1025.6
20260906044512 49 250 0.0 0.0 0.00 0.00 0.00 90 1024.6
20260906043705 49 250 0.0 0.0 0.00 0.02 0.00 90 1025.6
20260906043511 49 250 0.0 0.0 0.00 0.00 0.00 90 1024.5
20260906043206 49 250 0.0 0.0 0.00 0.02 0.00 89 1025.5
20260906042706 49 250 0.0 0.0 0.00 0.02 0.00 90 1025.6
20260906042511 49 250 0.0 0.0 0.00 0.00 0.00 90 1024.6
20260906042206 49 250 0.0 0.0 0.00 0.02 0.00 89 1025.5
20260906041706 49 250 0.0 0.0 0.00 0.02 0.00 89 1025.5
20260906041511 49 250 0.0 0.0 0.00 0.00 0.00 89 1024.5
20260906041206 50 250 0.0 0.0 0.00 0.02 0.00 89 1025.4
20260906040706 50 250 0.0 0.0 0.00 0.02 0.00 89 1025.3
20260906040511 50 250 0.0 0.0 0.00 0.00 0.00 89 1024.3
20260906040207 50 250 0.0 0.0 0.00 0.02 0.00 89 1025.3
20260906035206 50 250 0.0 1.0 0.00 0.02 0.00 89 1025.3
20260906034705 50 250 0.0 2.0 0.00 0.02 0.00 89 1025.3
20260906034511 50 250 0.0 0.0 0.00 0.00 0.00 89 1024.2
20260906033705 50 250 0.0 1.0 0.00 0.02 0.00 89 1025.2
20260906033511 50 250 0.0 1.0 0.00 0.00 0.00 89 1024.2
20260906033206 50 250 0.0 1.0 0.00 0.02 0.00 89 1025.2
20260906032511 50 250 0.0 0.0 0.00 0.00 0.00 88 1024.1
20260906031705 50 250 0.0 0.0 0.00 0.02 0.00 88 1025.3
20260906031511 51 250 0.0 0.0 0.00 0.00 0.00 88 1024.3
20260906030706 51 250 0.0 1.0 0.00 0.02 0.00 88 1025.2
20260906030512 51 250 0.0 0.0 0.00 0.00 0.00 88 1024.2
20260906030205 51 250 0.0 0.0 0.00 0.02 0.00 88 1025.3
20260906025511 51 250 0.0 0.0 0.00 0.00 0.00 87 1024.3
20260906025205 51 250 0.0 0.0 0.00 0.02 0.00 87 1025.2
20260906024706 51 250 0.0 0.0 0.00 0.02 0.00 87 1025.1
20260906024511 51 250 0.0 0.0 0.00 0.00 0.00 87 1024.1
20260906024205 51 250 0.0 0.0 0.00 0.02 0.00 87 1025.2
20260906022511 52 250 0.0 1.0 0.00 0.00 0.00 87 1024.2
20260906022205 52 250 0.0 1.0 0.00 0.02 0.00 87 1025.2
20260906021705 52 250 0.0 2.0 0.00 0.02 0.00 87 1025.3
20260906021511 52 250 0.0 2.0 0.00 0.00 0.00 87 1024.3
20260906021206 52 250 0.0 2.0 0.00 0.02 0.00 87 1025.4
20260906020705 52 250 1.0 2.0 0.00 0.02 0.00 87 1025.4
20260906020511 52 250 0.0 1.0 0.00 0.00 0.00 87 1024.3
20260906020206 52 250 0.0 1.0 0.00 0.02 0.00 87 1025.2
20260906015511 52 250 0.0 2.0 0.00 0.00 0.00 87 1024.2
20260906014706 52 250 0.0 1.0 0.00 0.02 0.00 86 1025.2
20260906014511 52 250 0.0 1.0 0.00 0.00 0.00 86 1024.1
20260906014205 52 250 0.0 0.0 0.00 0.02 0.00 86 1025.1
20260906013705 53 250 0.0 0.0 0.00 0.02 0.00 86 1025.0
20260906013511 53 250 0.0 0.0 0.00 0.00 0.00 86 1024.0
20260906012706 53 250 1.0 2.0 0.00 0.02 0.00 86 1025.0
20260906012511 53 250 0.0 2.0 0.00 0.00 0.00 86 1024.0
20260906012205 53 250 0.0 1.0 0.00 0.02 0.00 86 1025.0
20260906011511 53 250 0.0 0.0 0.00 0.00 0.00 85 1023.9
20260906011205 53 250 0.0 0.0 0.00 0.02 0.00 85 1024.9
20260906010706 53 250 0.0 1.0 0.00 0.02 0.00 85 1024.9
20260906010511 53 250 0.0 1.0 0.00 0.00 0.00 85 1023.9
20260906005511 53 250 0.0 0.0 0.00 0.00 0.00 84 1023.8
20260906005205 53 250 0.0 0.0 0.00 0.02 0.00 84 1024.8
20260906004706 54 250 0.0 0.0 0.00 0.02 0.00 84 1024.8
20260906004511 54 250 0.0 1.0 0.00 0.00 0.00 84 1023.8
20260906004205 54 250 0.0 1.0 0.00 0.02 0.00 84 1024.8
20260906003706 54 250 0.0 2.0 0.00 0.02 0.00 83 1024.8
20260906003205 54 250 0.0 1.0 0.00 0.02 0.00 83 1024.7
20260906002706 54 250 0.0 0.0 0.00 0.02 0.00 83 1024.7
20260906002511 54 250 0.0 1.0 0.00 0.00 0.00 83 1023.7
20260906002205 55 250 0.0 1.0 0.00 0.02 0.00 83 1024.7
20260906001511 55 250 0.0 2.0 0.00 0.00 0.00 82 1023.6
20260906001206 55 250 0.0 2.0 0.00 0.02 0.00 82 1024.7
20260906000705 55 249 1.0 3.0 0.00 0.02 0.00 82 1024.7
20260906000511 55 249 1.0 3.0 0.00 0.00 0.00 82 1023.6
20260906000205 55 235 0.0 3.0 0.00 0.02 0.00 82 1024.6
20260905235705 55 238 1.0 3.0 0.00 0.02 0.00 82 1024.7
20260905235205 55 250 1.0 3.0 0.00 0.02 0.00 82 1024.6
20260905234705 55 246 0.0 3.0 0.00 0.02 0.00 82 1024.6
20260905234511 55 228 1.0 2.0 0.00 0.00 0.00 82 1023.5
20260905234205 55 228 1.0 2.0 0.00 0.02 0.00 82 1024.5
20260905233705 55 235 2.0 6.0 0.00 0.02 0.00 82 1024.4
20260905233511 55 255 1.0 6.0 0.00 0.00 0.00 84 1023.3
20260905233205 55 235 1.0 3.0 0.00 0.02 0.00 84 1024.3
20260905232511 55 254 0.0 3.0 0.00 0.00 0.00 82 1023.1
20260905232205 55 254 0.0 2.0 0.00 0.02 0.00 81 1024.2
20260905231511 56 254 2.0 6.0 0.00 0.00 0.00 81 1023.1
20260905231206 56 266 1.0 6.0 0.00 0.02 0.00 81 1024.1
20260905230705 56 254 1.0 3.0 0.00 0.02 0.00 81 1024.1
20260905230510 56 250 0.0 2.0 0.00 0.00 0.00 81 1023.1
20260905230205 56 256 0.0 3.0 0.00 0.02 0.00 81 1024.1
20260905225706 56 225 0.0 3.0 0.00 0.02 0.00 81 1024.0
20260905225206 56 260 1.0 3.0 0.00 0.02 0.00 81 1024.0
20260905224510 56 275 1.0 4.0 0.00 0.00 0.00 80 1023.0
20260905224206 56 248 1.0 3.0 0.00 0.02 0.00 80 1023.9
20260905223705 56 248 2.0 6.0 0.00 0.02 0.00 80 1023.9
20260905223511 56 258 1.0 6.0 0.00 0.00 0.00 80 1023.0
20260905223206 56 244 0.0 3.0 0.00 0.02 0.00 80 1024.0
20260905222705 56 214 1.0 3.0 0.00 0.02 0.00 80 1023.9
20260905222205 57 240 0.0 2.0 0.00 0.02 0.00 79 1023.9
20260905221705 57 240 0.0 2.0 0.00 0.02 0.00 79 1023.9
20260905221510 57 240 0.0 2.0 0.00 0.00 0.00 79 1022.8
20260905221205 57 240 0.0 3.0 0.00 0.02 0.00 79 1023.8
20260905220706 57 238 1.0 3.0 0.00 0.02 0.00 78 1023.8
20260905220206 57 259 0.0 2.0 0.00 0.02 0.00 78 1023.7
20260905215706 57 228 1.0 3.0 0.00 0.02 0.02 78 1023.6
20260905215510 57 262 1.0 5.0 0.00 0.02 0.02 78 1022.6
20260905215205 57 267 2.0 5.0 0.00 0.02 0.02 78 1023.6
20260905214705 57 237 1.0 3.0 0.00 0.02 0.02 77 1023.5
20260905214510 58 235 1.0 4.0 0.00 0.02 0.02 77 1022.5
20260905213510 58 227 0.0 4.0 0.00 0.02 0.02 76 1022.7
20260905213205 58 237 1.0 3.0 0.00 0.02 0.02 76 1023.6
20260905212705 58 232 1.0 3.0 0.00 0.02 0.02 75 1023.5
20260905212510 58 231 1.0 4.0 0.00 0.02 0.02 75 1022.4
20260905212206 58 236 1.0 3.0 0.00 0.02 0.02 75 1023.4
20260905211705 59 222 1.0 6.0 0.00 0.02 0.02 75 1023.4
20260905210205 59 274 1.0 7.0 0.00 0.02 0.02 74 1023.4
20260905205510 59 244 1.0 7.0 0.00 0.02 0.02 73 1022.3
20260905205205 59 240 2.0 6.0 0.00 0.02 0.02 73 1023.2
20260905204705 59 263 2.0 3.0 0.00 0.02 0.02 73 1023.2
20260905204510 59 237 2.0 6.0 0.00 0.02 0.02 73 1022.2
20260905204205 60 255 1.0 6.0 0.00 0.02 0.02 72 1023.2
20260905203705 60 265 2.0 8.0 0.00 0.02 0.02 72 1023.1
20260905203511 60 227 1.0 5.0 0.00 0.02 0.02 72 1022.1
20260905203205 60 229 2.0 10.0 0.00 0.02 0.02 71 1023.1
20260905202705 60 211 1.0 7.0 0.00 0.02 0.02 71 1023.0
20260905202510 60 237 2.0 11.0 0.00 0.02 0.02 71 1021.9
20260905202205 60 255 3.0 12.0 0.00 0.02 0.02 71 1023.0
20260905201705 60 240 2.0 8.0 0.00 0.02 0.02 70 1022.9
20260905201510 60 256 3.0 9.0 0.00 0.02 0.02 70 1021.9
20260905200705 61 227 3.0 8.0 0.00 0.02 0.02 70 1022.8
20260905200205 61 263 2.0 8.0 0.00 0.02 0.02 69 1022.8
20260905195706 61 267 1.0 3.0 0.00 0.02 0.02 69 1022.8
20260905195510 61 256 2.0 8.0 0.00 0.02 0.02 69 1021.8
20260905195205 61 220 3.0 10.0 0.00 0.02 0.02 69 1022.9
20260905194705 61 235 3.0 7.0 0.00 0.02 0.02 69 1022.9
20260905194205 61 226 3.0 8.0 0.00 0.02 0.02 69 1022.9
20260905193705 61 197 2.0 8.0 0.00 0.02 0.02 69 1022.7
20260905193205 61 249 3.0 8.0 0.00 0.02 0.02 69 1022.8
20260905192705 61 245 1.0 7.0 0.00 0.02 0.02 69 1022.6
20260905192510 61 247 2.0 7.0 0.00 0.02 0.02 69 1021.6
20260905192205 61 249 2.0 3.0 0.00 0.02 0.02 68 1022.6
20260905191705 61 179 2.0 8.0 0.00 0.02 0.02 68 1022.5
20260905191510 62 248 3.0 8.0 0.00 0.02 0.02 68 1021.5
20260905191204 61 258 1.0 8.0 0.00 0.02 0.02 69 1022.5
20260905190705 61 257 1.0 6.0 0.00 0.02 0.02 69 1022.3
20260905190510 61 269 2.0 7.0 0.00 0.02 0.02 69 1021.3
20260905190205 61 245 2.0 9.0 0.00 0.02 0.02 69 1022.2
20260905185705 62 264 3.0 6.0 0.00 0.02 0.02 69 1022.2
20260905185510 62 256 2.0 6.0 0.00 0.02 0.02 69 1021.0
20260905185205 62 239 2.0 6.0 0.00 0.02 0.02 69 1022.1
20260905184705 62 197 1.0 3.0 0.00 0.02 0.02 68 1022.0
20260905183705 62 252 2.0 7.0 0.00 0.02 0.02 66 1022.0
20260905183510 62 266 2.0 7.0 0.00 0.02 0.02 66 1021.0
20260905183205 63 264 1.0 6.0 0.00 0.02 0.02 66 1022.0
20260905182705 63 268 3.0 9.0 0.00 0.02 0.02 65 1021.9
20260905182510 63 233 3.0 8.0 0.00 0.02 0.02 65 1020.9
20260905182207 63 255 2.0 10.0 0.00 0.02 0.02 65 1021.8
20260905181705 63 251 2.0 6.0 0.00 0.02 0.02 64 1021.7
20260905181510 63 242 2.0 5.0 0.00 0.02 0.02 64 1020.7
20260905181205 63 258 3.0 12.0 0.00 0.02 0.02 64 1021.7
20260905180510 63 244 3.0 12.0 0.00 0.02 0.02 64 1020.5
20260905180205 63 253 6.0 12.0 0.00 0.02 0.02 63 1021.6
20260905175510 64 259 3.0 11.0 0.00 0.02 0.02 61 1020.6
20260905174705 64 228 3.0 9.0 0.00 0.02 0.02 62 1021.4
20260905174510 64 356 3.0 11.0 0.00 0.02 0.02 62 1020.3
20260905173705 65 253 2.0 10.0 0.00 0.02 0.02 60 1021.2
20260905173510 65 236 5.0 12.0 0.00 0.02 0.02 60 1020.2
20260905173204 65 255 5.0 14.0 0.00 0.02 0.02 59 1021.2
20260905172705 65 265 5.0 17.0 0.00 0.02 0.02 58 1021.1
20260905172205 65 254 5.0 13.0 0.00 0.02 0.02 59 1021.0
20260905171705 65 260 6.0 12.0 0.00 0.02 0.02 60 1021.0
20260905171510 65 260 5.0 12.0 0.00 0.02 0.02 60 1020.0
20260905170705 66 262 3.0 12.0 0.00 0.02 0.02 60 1020.9
20260905170511 66 214 6.0 13.0 0.00 0.02 0.02 60 1019.9
20260905170205 66 255 7.0 14.0 0.00 0.02 0.02 59 1020.8
20260905165705 66 265 6.0 14.0 0.00 0.02 0.02 59 1020.8
20260905165510 66 202 5.0 14.0 0.00 0.02 0.02 59 1019.7
20260905165205 66 261 5.0 16.0 0.00 0.02 0.02 59 1020.7
20260905164705 66 264 5.0 15.0 0.00 0.02 0.02 59 1020.7
20260905164510 66 248 5.0 16.0 0.00 0.02 0.02 59 1019.7
20260905164205 66 246 7.0 17.0 0.00 0.02 0.02 59 1020.6
20260905163704 66 269 7.0 18.0 0.00 0.02 0.02 60 1020.5
20260905163510 66 257 6.0 18.0 0.00 0.02 0.02 60 1019.6
20260905163205 66 262 5.0 15.0 0.00 0.02 0.02 60 1020.4
20260905162704 66 245 6.0 18.0 0.00 0.02 0.02 59 1020.3
20260905162510 66 256 6.0 18.0 0.00 0.02 0.02 59 1019.4
20260905162205 66 263 6.0 15.0 0.00 0.02 0.02 58 1020.2